EUTELSAT 80A (26369 NORAD) Tracking and Keplerian Element Data

This shows tracking and keplerian element data for the satellite.

Feedback or suggestion? Click here.




ElementValue
Catalog26369
NameEUTELSAT 80A
Epoch Orbit7849
Epoch Day304.72095167
Epoch Year2021
RAAN77.2114
Inclination4.4229
Eccentricity0.0009949
Argument of Perigee216.2598
Mean Anonmoly192.3044
Mean Motion0.98471144
Decay Rate-1.47E-06
L11 26369U 00028A 21304.72095167 -.00000147 00000-0 00000-0 0 9996
L22 26369 4.4229 77.2114 0009949 216.2598 192.3044 0.98471144 78494



Live tracking and technical data element details for EUTELSAT 80A (NORAD 26369). EUTELSAT 80A can be tracked NOW for your location showing map with azimuth and elevation plus other details from your city location.







IsCatalogInMostPopularTable: catalog: 26369, numindb: 354
Update: records affected: 1



GetName: 26369 EUTELSAT 80A

Hit Count: updated at: Sat, 07 Mar 2026 06:33:37 GMT